Regional Weather Roundup
Issued by NWS

Home | Current Version | Previous Version | Graphics & Text | Print | Product List | Glossary Off
Versions: 1 2 3 4 5 6 7 8 9 10 11 12 13 14 15 16 17 18 19 20 21 22 23 24 25 26 27 28 29 30 31 32 33 34 35 36 37 38 39 40 41 42 43 44 45 46 47 48 49 50

000
ASUS43 KLSX 301310
RWRMO

WEATHER SUMMARY FOR MISSOURI
NATIONAL WEATHER SERVICE SPRINGFIELD MO
800 AM CDT SUN AUG 30 2015

NOTE: "FAIR" INDICATES FEW OR NO CLOUDS BELOW 12,000 FEET WITH NO
       SIGNIFICANT WEATHER AND/OR OBSTRUCTIONS TO VISIBILITY.
       CURRENT SKY AND/OR WEATHER CONDITIONS ARE NOT AVAILABLE FOR
       CHILLICOTHE AND FARMINGTON.

MOZ001>031-035>038-043-044-053-054-301400-
...NORTHERN AND WESTERN MISSOURI...

CITY           SKY/WX    TMP DP  RH WIND       PRES   REMARKS
KANSAS CTY INT FOG       67  62  84 E7        30.04R VSB<1/4
KANSAS C DTWN  FOG       68  67  96 NE5       30.03R VSB 1/2
LEE`S SUMMIT   FOG       68  67  96 NE6       30.04R VSB 1/4
ST JOSEPH      CLOUDY    63  62  97 N3        30.04R
CHILLICOTHE      N/A     68  67  96 NE5       30.05R
KIRKSVILLE     FOG       68  66  93 NE7       30.06R VSB<1/4

$$
MOZ066>068-077>081-088>096-101>105-301400-
...SOUTHWEST MISSOURI...

CITY           SKY/WX    TMP DP  RH WIND       PRES   REMARKS
SPRINGFIELD    PTSUNNY   70  67  90 SE9       30.03R
JOPLIN         FOG       68  68 100 E3        30.02R VSB<1/4

$$
MOZ032>034-039>042-045>050-055>058-069>072-301400-
...CENTRAL MISSOURI...

CITY           SKY/WX    TMP DP  RH WIND       PRES   REMARKS
COLUMBIA       PTSUNNY   70  69  97 E3        30.05R FOG
JEFFERSON CITY CLOUDY    68  67  96 E6        30.04R
ROLLA          PTSUNNY   69  66  90 S6        30.05R
SEDALIA        FOG       69  68  96 E3        30.04R VSB 1/4
WARRENSBURG    FOG       68  68 100 NE5       30.03R VSB 1/4
OSAGE BEACH    CLOUDY    66  64  94 NE3       30.05R

$$
MOZ051-052-059>065-301400-
...EAST CENTRAL MISSOURI...

CITY           SKY/WX    TMP DP  RH WIND       PRES   REMARKS
ST LOUIS INTL  PTSUNNY   75  66  73 SW3       30.05R
SPIRIT OF STL  PTSUNNY   70  68  93 CALM      30.04R
ST CHARLES     SUNNY     72  69  90 CALM      30.04R

$$
MOZ072>076-082>087-097>100-106>115-301400-
...SOUTH CENTRAL AND SOUTHEAST MISSOURI...

CITY           SKY/WX    TMP DP  RH WIND       PRES   REMARKS
CAPE GIRARDEAU MOSUNNY   72  70  93 S3        30.05R FOG
FARMINGTON     PTSUNNY   68  66  94 CALM      30.09R
POPLAR BLUFF   MOSUNNY   68  66  93 CALM      30.04R
WEST PLAINS    CLOUDY    71  66  84 CALM      30.09R

$$



USA.gov is the U.S. government's official web portal to all federal, state and local government web resources and services.